Location: Tel Aviv
(32.0670°N, 34.7670°E)
Time: 17:53:19
(UTC+02:00)

BlueWalker 3 - Visible Passes

Search period start: 02 December 2023 00:00
Search period end: 12 December 2023 00:00
Orbit: 489 x 504 km, 53.2° (Epoch: 01 December)

Date Brightness Start Highest point End Pass type
(mag) Time Alt. Az. Time Alt. Az. Time Alt. Az.
03 Dec 3.1 05:41:42 10° NNW 05:45:18 38° NE 05:48:52 10° ESE visible
04 Dec 3.1 05:19:34 13° NNW 05:22:39 37° NE 05:26:12 10° ESE visible
05 Dec 3.1 04:58:08 23° N 04:59:59 37° NE 05:03:31 10° ESE visible
06 Dec 3.0 04:36:46 34° NNE 04:37:16 36° NE 04:40:49 10° ESE visible
07 Dec 3.6 04:15:27 31° ENE 04:15:27 31° ENE 04:18:06 10° ESE visible
07 Dec 3.6 05:50:02 10° W 05:52:41 18° SW 05:55:22 10° S visible
08 Dec 4.7 03:54:11 18° E 03:54:11 18° E 03:55:21 10° ESE visible
08 Dec 3.6 05:28:46 16° W 05:29:58 19° SW 05:32:41 10° S visible
09 Dec 3.6 05:07:33 19° SW 05:07:33 19° SW 05:09:58 10° S visible
10 Dec 4.2 04:46:21 14° SSW 04:46:21 14° SSW 04:47:15 10° S visible
10 Dec 3.9 18:22:15 10° S 18:23:49 19° SSE 18:23:49 19° SSE visible
11 Dec 3.2 17:59:29 10° S 18:02:34 25° SE 18:02:34 25° SE visible
